Time,TemperatureF,DewpointF,PressureIn,WindDirection,WindDirectionDegrees,WindSpeedMPH,WindSpeedGustMPH,Humidity,HourlyPrecipIn,Conditions,Clouds,dailyrainin,SoftwareType,DateUTC
2013-01-14 00:00:00,46.2,45.7,29.56,WSW,244,6.3,6.3,98,0.00,,,0.00,VWS V14.01,2013-01-14 05:00:00,
2013-01-14 00:02:00,46.0,45.5,29.56,WSW,258,8.1,8.1,98,0.00,,OVC006,0.00,VWS V14.01,2013-01-14 05:02:00,
2013-01-14 00:03:00,46.0,45.5,29.56,WSW,258,0.0,0.0,98,0.00,,OVC006,0.00,VWS V14.01,2013-01-14 05:03:00,
2013-01-14 00:04:00,46.0,45.5,29.56,WSW,238,0.0,3.1,98,0.00,,OVC006,0.00,VWS V14.01,2013-01-14 05:04:00,
2013-01-14 00:09:00,46.0,45.5,29.56,WSW,246,0.0,0.0,98,0.00,,OVC006,0.00,VWS V14.01,2013-01-14 05:09:00,
2013-01-14 00:14:00,45.9,45.3,29.56,SW,227,0.0,0.0,98,0.00,,OVC006,0.00,VWS V14.01,2013-01-14 05:14:00,
2013-01-14 00:19:00,46.0,45.5,29.56,WSW,252,0.0,0.0,98,0.00,,OVC006,0.00,VWS V14.01,2013-01-14 05:19:00,
2013-01-14 00:24:00,45.9,45.3,29.56,WSW,246,0.0,2.2,98,0.00,,OVC006,0.00,VWS V14.01,2013-01-14 05:24:00,
2013-01-14 00:29:00,45.9,45.3,29.56,WSW,238,0.0,2.2,98,0.00,,OVC006,0.00,VWS V14.01,2013-01-14 05:29:00,
2013-01-14 00:35:00,45.9,45.3,29.56,SW,230,4.5,4.9,98,0.00,,OVC006,0.00,VWS V14.01,2013-01-14 05:35:00,
2013-01-14 00:40:00,45.9,45.3,29.56,WSW,237,0.0,7.6,98,0.00,,OVC006,0.00,VWS V14.01,2013-01-14 05:40:00,
2013-01-14 00:45:00,46.0,45.5,29.56,WSW,239,0.0,0.0,98,0.00,,OVC006,0.00,VWS V14.01,2013-01-14 05:45:00,
2013-01-14 00:50:00,46.0,45.5,29.56,West,268,5.4,5.4,98,0.00,,OVC006,0.00,VWS V14.01,2013-01-14 05:50:00,
2013-01-14 00:55:00,45.9,45.3,29.56,WSW,240,11.6,11.6,98,0.00,,OVC006,0.00,VWS V14.01,2013-01-14 05:55:00,
2013-01-14 01:00:00,45.9,45.3,29.56,SW,226,12.5,12.5,98,0.00,,OVC006,0.00,VWS V14.01,2013-01-14 06:00:00,
2013-01-14 01:06:00,46.0,45.5,29.56,WSW,240,6.3,6.3,98,0.00,,OVC006,0.00,VWS V14.01,2013-01-14 06:06:00,
2013-01-14 01:11:00,46.0,45.5,29.56,SW,231,12.5,12.5,98,0.00,,OVC006,0.00,VWS V14.01,2013-01-14 06:11:00,
2013-01-14 01:16:00,46.0,45.5,29.56,WSW,247,10.7,10.7,98,0.00,,OVC006,0.00,VWS V14.01,2013-01-14 06:16:00,
2013-01-14 01:21:00,46.0,45.5,29.56,WSW,247,16.6,16.6,98,0.00,,OVC006,0.00,VWS V14.01,2013-01-14 06:21:00,
2013-01-14 01:26:00,46.0,45.5,29.56,SW,231,11.6,11.6,98,0.00,,OVC006,0.00,VWS V14.01,2013-01-14 06:26:00,
2013-01-14 01:31:00,46.2,45.7,29.56,WSW,249,10.7,10.7,98,0.00,,OVC004,0.00,VWS V14.01,2013-01-14 06:31:00,
2013-01-14 01:36:00,46.2,45.7,29.56,WSW,237,8.1,8.1,98,0.00,,OVC004,0.00,VWS V14.01,2013-01-14 06:36:00,
2013-01-14 01:41:00,46.2,45.7,29.56,WSW,246,5.4,5.4,98,0.00,,OVC004,0.00,VWS V14.01,2013-01-14 06:41:00,
2013-01-14 01:46:00,46.2,45.7,29.56,SW,224,5.4,5.4,98,0.00,,OVC004,0.00,VWS V14.01,2013-01-14 06:46:00,
2013-01-14 01:51:00,46.4,45.9,29.56,WSW,243,6.3,6.3,98,0.00,,OVC004,0.00,VWS V14.01,2013-01-14 06:51:00,
2013-01-14 01:56:00,46.2,45.7,29.56,WSW,241,12.5,12.5,98,0.00,,OVC004,0.00,VWS V14.01,2013-01-14 06:56:00,
2013-01-14 02:01:00,46.2,45.7,29.56,West,269,12.5,12.5,98,0.00,,OVC004,0.00,VWS V14.01,2013-01-14 07:01:00,
2013-01-14 02:07:00,46.2,45.7,29.56,WSW,256,10.7,10.7,98,0.00,,OVC004,0.00,VWS V14.01,2013-01-14 07:07:00,
2013-01-14 02:12:00,46.0,45.5,29.56,WSW,252,10.7,10.7,98,0.00,,OVC004,0.00,VWS V14.01,2013-01-14 07:12:00,
2013-01-14 02:17:00,46.0,45.5,29.56,WSW,246,8.1,8.1,98,0.00,,OVC004,0.00,VWS V14.01,2013-01-14 07:17:00,
2013-01-14 02:22:00,46.0,45.5,29.56,WSW,238,8.1,8.1,98,0.00,,OVC004,0.00,VWS V14.01,2013-01-14 07:22:00,
2013-01-14 02:28:00,45.9,45.3,29.56,SW,235,17.4,17.4,98,0.00,,OVC004,0.00,VWS V14.01,2013-01-14 07:28:00,
2013-01-14 02:33:00,45.7,45.2,29.56,WSW,244,6.3,6.3,98,0.00,,OVC004,0.00,VWS V14.01,2013-01-14 07:33:00,
2013-01-14 02:38:00,45.7,45.2,29.56,SSW,198,9.8,9.8,98,0.00,,OVC004,0.00,VWS V14.01,2013-01-14 07:38:00,
2013-01-14 02:43:00,45.7,45.2,29.56,WSW,248,10.7,10.7,98,0.00,,OVC004,0.00,VWS V14.01,2013-01-14 07:43:00,
2013-01-14 02:48:00,45.5,45.0,29.53,SW,236,5.4,5.4,98,0.00,,OVC004,0.00,VWS V14.01,2013-01-14 07:48:00,
2013-01-14 02:53:00,45.1,44.6,29.53,WSW,241,9.8,9.8,98,0.00,,OVC004,0.00,VWS V14.01,2013-01-14 07:53:00,
2013-01-14 02:58:00,45.3,44.8,29.53,SW,233,6.3,6.3,98,0.00,,OVC004,0.00,VWS V14.01,2013-01-14 07:58:00,
2013-01-14 03:04:00,45.3,44.8,29.53,WSW,244,6.3,6.3,98,0.00,,,0.00,VWS V14.01,2013-01-14 08:04:00,
2013-01-14 03:09:00,45.1,44.6,29.53,WSW,243,7.2,7.2,98,0.00,,,0.00,VWS V14.01,2013-01-14 08:09:00,
2013-01-14 03:14:00,45.1,44.6,29.53,WSW,244,0.0,0.0,98,0.00,,,0.00,VWS V14.01,2013-01-14 08:14:00,
2013-01-14 03:19:00,45.0,44.4,29.53,WSW,245,0.0,0.0,98,0.00,,,0.00,VWS V14.01,2013-01-14 08:19:00,
2013-01-14 03:24:00,44.6,44.1,29.53,WSW,242,5.4,5.4,98,0.00,,,0.00,VWS V14.01,2013-01-14 08:24:00,
2013-01-14 03:29:00,44.4,43.9,29.53,WSW,241,0.0,0.0,98,0.00,,,0.00,VWS V14.01,2013-01-14 08:29:00,
2013-01-14 03:34:00,45.0,44.4,29.50,South,186,0.0,2.2,98,0.00,,,0.00,VWS V14.01,2013-01-14 08:34:00,
2013-01-14 03:40:00,45.1,44.6,29.50,WSW,237,0.0,0.0,98,0.00,,,0.00,VWS V14.01,2013-01-14 08:40:00,
2013-01-14 03:45:00,45.1,44.6,29.50,WSW,248,0.0,0.0,98,0.00,,,0.00,VWS V14.01,2013-01-14 08:45:00,
2013-01-14 03:50:00,44.8,44.2,29.50,WSW,248,0.0,0.0,98,0.00,,,0.00,VWS V14.01,2013-01-14 08:50:00,
2013-01-14 03:55:00,44.4,43.9,29.50,WSW,258,0.0,0.0,98,0.00,,,0.00,VWS V14.01,2013-01-14 08:55:00,
2013-01-14 04:00:00,44.2,43.7,29.50,WSW,258,0.0,0.0,98,0.00,,,0.00,VWS V14.01,2013-01-14 09:00:00,
2013-01-14 04:05:00,44.2,43.7,29.50,WSW,254,0.0,2.7,98,0.00,,,0.00,VWS V14.01,2013-01-14 09:05:00,
2013-01-14 04:10:00,44.1,43.5,29.50,WSW,246,6.3,6.3,98,0.00,,,0.00,VWS V14.01,2013-01-14 09:10:00,
2013-01-14 04:15:00,44.2,43.7,29.50,SW,235,6.3,6.3,98,0.00,,,0.00,VWS V14.01,2013-01-14 09:15:00,
2013-01-14 04:21:00,44.4,43.9,29.50,WSW,257,0.0,3.1,98,0.00,,,0.00,VWS V14.01,2013-01-14 09:21:00,
2013-01-14 04:26:00,44.8,44.2,29.50,WSW,247,5.4,5.4,98,0.00,,,0.00,VWS V14.01,2013-01-14 09:26:00,
2013-01-14 04:31:00,44.8,44.2,29.50,SW,222,5.4,5.4,98,0.00,,,0.00,VWS V14.01,2013-01-14 09:31:00,
2013-01-14 04:36:00,44.8,44.2,29.50,WSW,240,6.3,6.3,98,0.00,,,0.00,VWS V14.01,2013-01-14 09:36:00,
2013-01-14 04:41:00,45.0,44.4,29.50,WSW,256,0.0,2.2,98,0.00,,,0.00,VWS V14.01,2013-01-14 09:41:00,
2013-01-14 04:46:00,44.8,44.2,29.50,WSW,246,5.4,5.4,98,0.00,,,0.00,VWS V14.01,2013-01-14 09:46:00,
2013-01-14 04:51:00,44.6,44.1,29.50,SW,231,0.0,4.0,98,0.00,,,0.00,VWS V14.01,2013-01-14 09:51:00,
2013-01-14 04:56:00,44.6,44.1,29.50,WSW,245,6.3,6.3,98,0.00,,,0.00,VWS V14.01,2013-01-14 09:56:00,
2013-01-14 05:01:00,44.6,44.1,29.50,WSW,258,0.0,3.1,98,0.00,,,0.00,VWS V14.01,2013-01-14 10:01:00,
2013-01-14 05:06:00,44.6,44.1,29.50,WSW,258,0.0,3.6,98,0.00,,,0.00,VWS V14.01,2013-01-14 10:06:00,
2013-01-14 05:12:00,44.4,43.9,29.50,WSW,238,0.0,3.1,98,0.00,,,0.00,VWS V14.01,2013-01-14 10:12:00,
2013-01-14 05:17:00,44.6,44.1,29.50,WSW,253,8.1,8.1,98,0.00,,,0.00,VWS V14.01,2013-01-14 10:17:00,
2013-01-14 05:22:00,44.2,43.7,29.50,WSW,243,0.0,0.0,98,0.00,,,0.00,VWS V14.01,2013-01-14 10:22:00,
2013-01-14 05:27:00,44.4,43.9,29.50,WSW,243,0.0,0.0,98,0.00,,,0.00,VWS V14.01,2013-01-14 10:27:00,
2013-01-14 05:32:00,44.6,44.1,29.50,WSW,242,0.0,0.0,98,0.00,,,0.00,VWS V14.01,2013-01-14 10:32:00,
2013-01-14 05:37:00,44.6,44.1,29.50,SW,234,4.5,4.5,98,0.00,,,0.00,VWS V14.01,2013-01-14 10:37:00,
2013-01-14 05:42:00,44.6,44.1,29.50,SW,223,0.0,3.1,98,0.00,,,0.00,VWS V14.01,2013-01-14 10:42:00,
2013-01-14 05:47:00,44.6,44.1,29.47,SW,236,5.4,5.4,98,0.00,,,0.00,VWS V14.01,2013-01-14 10:47:00,
2013-01-14 05:52:00,44.8,44.2,29.47,WSW,243,0.0,2.7,98,0.00,,,0.00,VWS V14.01,2013-01-14 10:52:00,
2013-01-14 05:58:00,45.0,44.4,29.47,WSW,237,6.3,6.3,98,0.00,,,0.00,VWS V14.01,2013-01-14 10:58:00,
2013-01-14 06:03:00,45.1,44.6,29.47,SW,217,0.0,3.6,98,0.00,,,0.00,VWS V14.01,2013-01-14 11:03:00,
2013-01-14 06:08:00,45.1,44.6,29.47,WSW,249,7.2,7.2,98,0.00,,,0.00,VWS V14.01,2013-01-14 11:08:00,
2013-01-14 06:13:00,45.3,44.8,29.47,SW,230,7.2,7.2,98,0.00,,,0.00,VWS V14.01,2013-01-14 11:13:00,
2013-01-14 06:18:00,45.1,44.6,29.50,SSW,200,4.5,4.5,98,0.00,,,0.00,VWS V14.01,2013-01-14 11:18:00,
2013-01-14 06:23:00,45.3,44.8,29.50,WSW,247,6.3,6.3,98,0.00,,,0.00,VWS V14.01,2013-01-14 11:23:00,
2013-01-14 06:28:00,45.3,44.8,29.50,SW,231,7.2,7.2,98,0.00,,,0.00,VWS V14.01,2013-01-14 11:28:00,
2013-01-14 06:33:00,45.5,45.0,29.47,WSW,250,0.0,3.1,98,0.00,,,0.00,VWS V14.01,2013-01-14 11:33:00,
2013-01-14 06:39:00,45.7,45.2,29.47,WSW,251,6.3,6.3,98,0.00,,,0.00,VWS V14.01,2013-01-14 11:39:00,
2013-01-14 06:44:00,45.7,45.2,29.47,SSW,212,9.8,9.8,98,0.00,,,0.00,VWS V14.01,2013-01-14 11:44:00,
2013-01-14 06:49:00,45.7,45.2,29.50,WSW,246,5.4,5.4,98,0.00,,,0.00,VWS V14.01,2013-01-14 11:49:00,
2013-01-14 06:54:00,45.9,45.3,29.50,WSW,257,10.7,10.7,98,0.00,,,0.00,VWS V14.01,2013-01-14 11:54:00,
2013-01-14 06:59:00,45.9,45.3,29.50,WSW,239,5.4,5.4,98,0.00,,,0.00,VWS V14.01,2013-01-14 11:59:00,
2013-01-14 07:04:00,46.0,45.5,29.50,WSW,245,6.3,6.3,98,0.00,,,0.00,VWS V14.01,2013-01-14 12:04:00,
2013-01-14 07:09:00,46.0,45.5,29.50,WSW,251,6.3,6.3,98,0.00,,,0.00,VWS V14.01,2013-01-14 12:09:00,
2013-01-14 07:14:00,46.0,45.5,29.50,WSW,241,0.0,2.2,98,0.04,,,0.04,VWS V14.01,2013-01-14 12:14:00,
2013-01-14 07:19:00,45.9,45.3,29.50,West,280,8.1,8.1,98,0.04,,,0.04,VWS V14.01,2013-01-14 12:19:00,
2013-01-14 07:24:00,45.7,45.2,29.50,West,262,5.4,6.3,98,0.04,,,0.04,VWS V14.01,2013-01-14 12:24:00,
2013-01-14 07:29:00,45.7,45.2,29.50,WSW,252,0.0,0.0,98,0.04,,,0.04,VWS V14.01,2013-01-14 12:29:00,
2013-01-14 07:34:00,44.6,44.1,29.47,West,274,0.0,0.0,98,0.04,,,0.04,VWS V14.01,2013-01-14 12:34:00,
2013-01-14 07:40:00,44.6,44.1,29.47,WSW,255,12.5,12.5,98,0.04,,,0.04,VWS V14.01,2013-01-14 12:40:00,
2013-01-14 07:45:00,45.3,44.8,29.47,WSW,241,0.0,2.7,98,0.04,,,0.04,VWS V14.01,2013-01-14 12:45:00,
2013-01-14 07:50:00,45.3,44.8,29.50,WSW,252,0.0,5.8,98,0.04,,,0.04,VWS V14.01,2013-01-14 12:50:00,
2013-01-14 07:55:00,45.5,45.0,29.50,SW,216,0.0,0.0,98,0.04,,,0.04,VWS V14.01,2013-01-14 12:55:00,
2013-01-14 08:00:00,45.9,45.3,29.50,WSW,254,4.5,6.3,98,0.04,,,0.04,VWS V14.01,2013-01-14 13:00:00,
2013-01-14 08:05:00,46.0,45.5,29.50,WSW,241,0.0,2.7,98,0.04,,,0.04,VWS V14.01,2013-01-14 13:05:00,
2013-01-14 08:10:00,45.9,45.3,29.50,SSW,197,5.4,5.4,98,0.04,,,0.04,VWS V14.01,2013-01-14 13:10:00,
2013-01-14 08:15:00,45.9,45.3,29.50,SW,224,0.0,2.2,98,0.00,,,0.04,VWS V14.01,2013-01-14 13:15:00,
2013-01-14 08:20:00,46.0,45.5,29.50,WSW,239,10.7,10.7,98,0.00,,,0.04,VWS V14.01,2013-01-14 13:20:00,
2013-01-14 08:25:00,46.0,45.5,29.50,SSW,208,4.5,4.5,98,0.00,,,0.04,VWS V14.01,2013-01-14 13:25:00,
2013-01-14 08:30:00,46.4,45.9,29.50,SW,234,5.4,5.4,98,0.00,,,0.04,VWS V14.01,2013-01-14 13:30:00,
2013-01-14 08:35:00,46.4,45.9,29.47,SW,235,0.0,3.1,98,0.00,,,0.04,VWS V14.01,2013-01-14 13:35:00,
2013-01-14 08:40:00,46.4,45.9,29.47,West,260,8.1,8.1,98,0.00,,,0.04,VWS V14.01,2013-01-14 13:40:00,
2013-01-14 08:46:00,46.2,45.7,29.47,SSW,200,0.0,0.0,98,0.00,,,0.04,VWS V14.01,2013-01-14 13:46:00,
2013-01-14 08:51:00,46.6,46.0,29.47,SW,215,0.0,3.6,98,0.00,,OVC006,0.04,VWS V14.01,2013-01-14 13:51:00,
2013-01-14 08:56:00,46.6,46.0,29.47,WSW,243,0.0,0.0,98,0.00,,OVC006,0.04,VWS V14.01,2013-01-14 13:56:00,
2013-01-14 09:01:00,46.4,45.9,29.47,SW,229,12.5,12.5,98,0.00,,BKN006,0.04,VWS V14.01,2013-01-14 14:01:00,
2013-01-14 09:06:00,46.4,45.9,29.47,SW,232,11.6,11.6,98,0.00,,BKN006,0.04,VWS V14.01,2013-01-14 14:06:00,
2013-01-14 09:11:00,46.4,45.9,29.47,SW,236,4.5,4.5,98,0.00,,BKN006,0.04,VWS V14.01,2013-01-14 14:11:00,
2013-01-14 09:16:00,46.6,46.0,29.47,WSW,247,4.5,4.5,98,0.00,,BKN006,0.04,VWS V14.01,2013-01-14 14:16:00,
2013-01-14 09:21:00,46.4,45.9,29.50,WSW,241,7.2,7.2,98,0.00,,BKN006,0.04,VWS V14.01,2013-01-14 14:21:00,
2013-01-14 09:26:00,46.6,46.0,29.50,WSW,247,12.5,12.5,98,0.00,,BKN006,0.04,VWS V14.01,2013-01-14 14:26:00,
2013-01-14 09:31:00,46.4,45.9,29.50,WSW,256,6.3,6.3,98,0.00,,BKN006,0.04,VWS V14.01,2013-01-14 14:31:00,
2013-01-14 09:36:00,46.4,45.9,29.50,West,262,0.0,0.0,98,0.00,,BKN006,0.04,VWS V14.01,2013-01-14 14:36:00,
2013-01-14 09:41:00,46.4,45.9,29.50,WSW,245,7.2,7.2,98,0.00,,BKN006,0.04,VWS V14.01,2013-01-14 14:41:00,
2013-01-14 09:46:00,46.6,46.0,29.53,West,274,6.3,6.3,98,0.00,,BKN006,0.04,VWS V14.01,2013-01-14 14:46:00,
2013-01-14 09:52:00,46.6,46.0,29.53,WSW,249,8.1,8.1,98,0.00,,BKN006,0.04,VWS V14.01,2013-01-14 14:52:00,
2013-01-14 09:57:00,46.6,46.0,29.53,WSW,248,10.7,10.7,98,0.00,,BKN006,0.04,VWS V14.01,2013-01-14 14:57:00,
2013-01-14 10:02:00,46.4,45.9,29.50,WSW,251,6.3,6.3,98,0.00,,OVC006,0.04,VWS V14.01,2013-01-14 15:02:00,
2013-01-14 10:07:00,46.2,45.7,29.50,WSW,244,8.1,8.1,98,0.00,,OVC006,0.04,VWS V14.01,2013-01-14 15:07:00,
2013-01-14 10:12:00,46.2,45.7,29.50,WSW,247,7.2,7.2,98,0.00,,OVC006,0.04,VWS V14.01,2013-01-14 15:12:00,
2013-01-14 10:17:00,46.2,45.7,29.50,WSW,249,8.9,8.9,98,0.00,,OVC006,0.04,VWS V14.01,2013-01-14 15:17:00,
2013-01-14 10:22:00,46.2,45.7,29.50,WNW,285,8.1,8.1,98,0.00,,OVC004,0.04,VWS V14.01,2013-01-14 15:22:00,
2013-01-14 10:27:00,46.4,45.9,29.50,West,268,11.6,11.6,98,0.00,,OVC004,0.04,VWS V14.01,2013-01-14 15:27:00,
2013-01-14 10:32:00,46.6,46.0,29.50,WSW,254,10.7,10.7,98,0.00,,OVC004,0.04,VWS V14.01,2013-01-14 15:32:00,
2013-01-14 10:37:00,46.6,46.0,29.50,West,266,11.6,11.6,98,0.00,,OVC004,0.04,VWS V14.01,2013-01-14 15:37:00,
2013-01-14 10:42:00,46.6,46.0,29.50,West,272,11.6,11.6,98,0.00,,OVC004,0.04,VWS V14.01,2013-01-14 15:42:00,
2013-01-14 10:48:00,46.6,46.0,29.50,WSW,246,11.6,11.6,98,0.00,,OVC004,0.04,VWS V14.01,2013-01-14 15:48:00,
2013-01-14 10:53:00,46.4,45.9,29.50,WSW,251,6.3,6.3,98,0.00,,OVC004,0.04,VWS V14.01,2013-01-14 15:53:00,
2013-01-14 10:58:00,46.4,45.9,29.50,WSW,247,8.1,8.1,98,0.00,,OVC004,0.04,VWS V14.01,2013-01-14 15:58:00,
2013-01-14 11:03:00,46.2,45.7,29.50,WSW,249,12.5,12.5,98,0.00,,OVC004,0.04,VWS V14.01,2013-01-14 16:03:00,
2013-01-14 11:08:00,46.2,45.7,29.50,WSW,238,0.0,3.6,98,0.00,,OVC004,0.04,VWS V14.01,2013-01-14 16:08:00,
2013-01-14 11:13:00,46.0,45.5,29.50,West,279,0.0,0.0,98,0.00,,OVC004,0.04,VWS V14.01,2013-01-14 16:13:00,
2013-01-14 11:18:00,46.0,45.5,29.50,West,264,0.0,4.0,98,0.00,,OVC004,0.04,VWS V14.01,2013-01-14 16:18:00,
2013-01-14 11:23:00,46.2,45.7,29.50,WSW,253,10.7,10.7,98,0.00,,OVC004,0.04,VWS V14.01,2013-01-14 16:23:00,
2013-01-14 11:28:00,46.4,45.9,29.50,WSW,245,7.2,7.2,98,0.00,,OVC004,0.04,VWS V14.01,2013-01-14 16:28:00,
2013-01-14 11:33:00,46.4,45.9,29.50,WSW,250,8.1,8.1,98,0.00,,OVC004,0.04,VWS V14.01,2013-01-14 16:33:00,
2013-01-14 11:38:00,46.4,45.9,29.50,WSW,247,8.1,8.1,98,0.00,,OVC004,0.04,VWS V14.01,2013-01-14 16:38:00,
2013-01-14 11:43:00,46.6,46.0,29.50,WSW,245,7.2,7.2,98,0.00,,OVC004,0.04,VWS V14.01,2013-01-14 16:43:00,
2013-01-14 11:48:00,46.6,46.0,29.50,WSW,251,11.6,11.6,98,0.00,,OVC004,0.04,VWS V14.01,2013-01-14 16:48:00,
2013-01-14 11:53:00,46.6,46.0,29.50,WSW,251,8.1,8.1,98,0.00,,OVC004,0.04,VWS V14.01,2013-01-14 16:53:00,
2013-01-14 11:58:00,46.8,46.2,29.50,WSW,246,0.0,3.1,98,0.00,,OVC004,0.04,VWS V14.01,2013-01-14 16:58:00,
2013-01-14 12:03:00,46.9,46.4,29.50,WSW,243,5.4,5.4,98,0.00,,OVC004,0.04,VWS V14.01,2013-01-14 17:03:00,
2013-01-14 12:08:00,46.9,46.4,29.50,WSW,246,5.4,5.4,98,0.00,,OVC004,0.04,VWS V14.01,2013-01-14 17:08:00,
2013-01-14 12:13:00,47.3,46.8,29.50,WSW,245,6.3,6.3,98,0.00,,OVC004,0.04,VWS V14.01,2013-01-14 17:13:00,
2013-01-14 12:18:00,47.3,46.8,29.50,West,260,8.1,8.1,98,0.00,,OVC004,0.04,VWS V14.01,2013-01-14 17:18:00,
2013-01-14 12:24:00,47.3,46.8,29.50,WSW,253,5.4,5.4,98,0.00,,SCT004,0.04,VWS V14.01,2013-01-14 17:24:00,
2013-01-14 12:29:00,47.7,47.1,29.50,WSW,243,8.1,8.1,98,0.00,,SCT004,0.04,VWS V14.01,2013-01-14 17:29:00,
2013-01-14 12:34:00,48.0,47.5,29.50,SW,230,6.3,6.3,98,0.00,,SCT004,0.04,VWS V14.01,2013-01-14 17:34:00,
2013-01-14 12:39:00,48.4,47.8,29.50,SW,233,4.5,4.5,98,0.00,,SCT004,0.04,VWS V14.01,2013-01-14 17:39:00,
2013-01-14 12:44:00,48.6,48.0,29.50,WSW,249,6.3,6.3,98,0.00,,SCT004,0.04,VWS V14.01,2013-01-14 17:44:00,
2013-01-14 12:49:00,48.9,48.4,29.50,WSW,240,0.0,0.0,98,0.00,,SCT004,0.04,VWS V14.01,2013-01-14 17:49:00,
2013-01-14 12:54:00,49.3,48.7,29.50,SW,235,4.5,4.5,98,0.00,,SCT004,0.04,VWS V14.01,2013-01-14 17:54:00,
2013-01-14 12:59:00,49.6,49.1,29.50,WSW,245,6.3,6.3,98,0.00,,SCT004,0.04,VWS V14.01,2013-01-14 17:59:00,
2013-01-14 13:04:00,49.8,49.3,29.53,WSW,245,5.4,5.4,98,0.00,,CLR,0.04,VWS V14.01,2013-01-14 18:04:00,
2013-01-14 13:09:00,49.8,49.3,29.53,WSW,253,7.2,7.2,98,0.00,,CLR,0.04,VWS V14.01,2013-01-14 18:09:00,
2013-01-14 13:14:00,49.8,49.3,29.53,WSW,245,6.3,6.3,98,0.00,,CLR,0.04,VWS V14.01,2013-01-14 18:14:00,
2013-01-14 13:20:00,49.8,49.3,29.50,WSW,248,5.4,5.4,98,0.00,,CLR,0.04,VWS V14.01,2013-01-14 18:20:00,
2013-01-14 13:25:00,49.8,49.3,29.50,WSW,240,6.3,6.3,98,0.00,,CLR,0.04,VWS V14.01,2013-01-14 18:25:00,
2013-01-14 13:30:00,50.0,49.5,29.50,WSW,242,7.2,7.2,98,0.00,,CLR,0.04,VWS V14.01,2013-01-14 18:30:00,
2013-01-14 13:35:00,49.8,49.3,29.53,WSW,239,4.5,4.5,98,0.00,,CLR,0.04,VWS V14.01,2013-01-14 18:35:00,
2013-01-14 13:40:00,50.0,49.5,29.53,SW,234,8.1,8.1,98,0.00,,CLR,0.04,VWS V14.01,2013-01-14 18:40:00,
2013-01-14 13:45:00,50.2,49.6,29.53,WSW,246,8.1,8.1,98,0.00,,CLR,0.04,VWS V14.01,2013-01-14 18:45:00,
2013-01-14 13:50:00,50.4,49.8,29.56,WSW,258,8.1,8.1,98,0.00,,CLR,0.04,VWS V14.01,2013-01-14 18:50:00,
2013-01-14 13:55:00,50.5,50.0,29.56,WSW,240,6.3,6.3,98,0.00,,CLR,0.04,VWS V14.01,2013-01-14 18:55:00,
2013-01-14 14:00:00,51.1,50.5,29.56,WSW,241,9.8,9.8,98,0.00,,CLR,0.04,VWS V14.01,2013-01-14 19:00:00,
2013-01-14 14:05:00,51.4,50.9,29.56,WSW,248,0.0,0.0,98,0.00,,CLR,0.04,VWS V14.01,2013-01-14 19:05:00,
2013-01-14 14:10:00,51.6,51.1,29.56,WSW,250,7.2,7.2,98,0.00,,CLR,0.04,VWS V14.01,2013-01-14 19:10:00,
2013-01-14 14:15:00,52.3,51.8,29.56,NW,308,0.0,3.1,98,0.00,,CLR,0.04,VWS V14.01,2013-01-14 19:15:00,
2013-01-14 14:20:00,52.5,52.0,29.59,East,92,6.3,6.3,98,0.00,,CLR,0.04,VWS V14.01,2013-01-14 19:20:00,
2013-01-14 14:26:00,52.2,51.6,29.59,North,0,0.0,0.0,98,0.00,,CLR,0.04,VWS V14.01,2013-01-14 19:26:00,
2013-01-14 14:31:00,51.8,51.3,29.59,North,353,0.0,0.0,98,0.00,,CLR,0.04,VWS V14.01,2013-01-14 19:31:00,
2013-01-14 14:36:00,51.6,51.1,29.59,NNW,336,0.0,0.0,98,0.00,,CLR,0.04,VWS V14.01,2013-01-14 19:36:00,
2013-01-14 14:41:00,51.4,50.9,29.59,NNE,32,0.0,0.0,98,0.00,,CLR,0.04,VWS V14.01,2013-01-14 19:41:00,
2013-01-14 14:46:00,51.3,50.7,29.59,North,357,0.0,0.0,98,0.00,,CLR,0.04,VWS V14.01,2013-01-14 19:46:00,
2013-01-14 14:51:00,51.3,50.7,29.59,North,357,0.0,0.0,98,0.00,,CLR,0.04,VWS V14.01,2013-01-14 19:51:00,
2013-01-14 14:56:00,51.1,50.5,29.59,North,357,0.0,0.0,98,0.00,,CLR,0.04,VWS V14.01,2013-01-14 19:56:00,
2013-01-14 15:02:00,51.1,50.5,29.62,NNW,335,0.0,2.7,98,0.00,,CLR,0.04,VWS V14.01,2013-01-14 20:02:00,
2013-01-14 15:07:00,50.9,50.4,29.62,WNW,301,5.4,5.4,98,0.00,,CLR,0.04,VWS V14.01,2013-01-14 20:07:00,
2013-01-14 15:12:00,50.9,50.4,29.62,NW,310,5.4,5.4,98,0.00,,CLR,0.04,VWS V14.01,2013-01-14 20:12:00,
2013-01-14 15:17:00,50.9,50.4,29.62,North,357,4.5,4.5,98,0.00,,CLR,0.04,VWS V14.01,2013-01-14 20:17:00,
2013-01-14 15:22:00,50.7,50.2,29.62,North,11,0.0,2.7,98,0.00,,CLR,0.04,VWS V14.01,2013-01-14 20:22:00,
2013-01-14 15:27:00,50.4,49.8,29.62,NNW,335,0.0,0.0,98,0.00,,CLR,0.04,VWS V14.01,2013-01-14 20:27:00,
2013-01-14 15:32:00,50.0,49.5,29.65,West,277,7.2,7.2,98,0.00,,CLR,0.04,VWS V14.01,2013-01-14 20:32:00,
2013-01-14 15:37:00,49.3,48.7,29.65,NW,316,0.0,3.1,98,0.00,,CLR,0.04,VWS V14.01,2013-01-14 20:37:00,
2013-01-14 15:42:00,48.7,48.2,29.65,NW,306,10.7,10.7,98,0.00,,CLR,0.04,VWS V14.01,2013-01-14 20:42:00,
2013-01-14 15:47:00,48.2,47.7,29.65,NNW,328,4.5,4.5,98,0.00,,CLR,0.04,VWS V14.01,2013-01-14 20:47:00,
2013-01-14 15:52:00,47.1,46.6,29.65,NW,314,5.4,5.4,98,0.00,,CLR,0.04,VWS V14.01,2013-01-14 20:52:00,
2013-01-14 15:57:00,47.3,46.8,29.65,NNE,21,4.5,4.5,98,0.00,,CLR,0.04,VWS V14.01,2013-01-14 20:57:00,
2013-01-14 16:03:00,46.2,45.7,29.68,West,277,5.4,8.1,98,0.00,,CLR,0.04,VWS V14.01,2013-01-14 21:03:00,
2013-01-14 16:08:00,46.2,45.2,29.68,WNW,283,5.4,5.4,96,0.00,,CLR,0.04,VWS V14.01,2013-01-14 21:08:00,
2013-01-14 16:13:00,45.9,41.0,29.68,WNW,292,5.4,5.4,83,0.00,,CLR,0.04,VWS V14.01,2013-01-14 21:13:00,
2013-01-14 16:18:00,45.9,31.1,29.68,NNW,330,0.0,0.0,56,0.00,,CLR,0.04,VWS V14.01,2013-01-14 21:18:00,
2013-01-14 16:23:00,45.5,27.5,29.68,NNW,339,4.5,4.5,49,0.00,,CLR,0.04,VWS V14.01,2013-01-14 21:23:00,
2013-01-14 16:28:00,45.1,24.5,29.68,NW,321,5.4,5.4,44,0.00,,CLR,0.04,VWS V14.01,2013-01-14 21:28:00,
2013-01-14 16:33:00,45.0,23.8,29.68,NW,314,0.0,0.0,43,0.00,,CLR,0.04,VWS V14.01,2013-01-14 21:33:00,
2013-01-14 16:38:00,44.8,23.7,29.68,NNW,338,0.0,0.0,43,0.00,,CLR,0.04,VWS V14.01,2013-01-14 21:38:00,
2013-01-14 16:43:00,44.2,23.7,29.68,NW,316,0.0,0.0,44,0.00,,CLR,0.04,VWS V14.01,2013-01-14 21:43:00,
2013-01-14 16:48:00,43.9,23.9,29.71,WNW,302,5.4,5.4,45,0.00,,CLR,0.04,VWS V14.01,2013-01-14 21:48:00,
2013-01-14 16:53:00,43.5,23.6,29.71,NNW,329,5.4,5.4,45,0.00,,CLR,0.04,VWS V14.01,2013-01-14 21:53:00,
2013-01-14 16:58:00,43.3,24.0,29.71,NNW,332,0.0,0.0,46,0.00,,CLR,0.04,VWS V14.01,2013-01-14 21:58:00,
2013-01-14 17:04:00,43.0,24.1,29.71,NNW,332,0.0,0.0,47,0.00,,CLR,0.04,VWS V14.01,2013-01-14 22:04:00,
2013-01-14 17:09:00,42.6,24.3,29.71,NNW,343,0.0,0.0,48,0.00,,CLR,0.04,VWS V14.01,2013-01-14 22:09:00,
2013-01-14 17:14:00,42.1,24.3,29.71,North,3,0.0,0.0,49,0.00,,CLR,0.04,VWS V14.01,2013-01-14 22:14:00,
2013-01-14 17:19:00,41.5,23.8,29.71,NW,308,0.0,0.0,49,0.00,,CLR,0.04,VWS V14.01,2013-01-14 22:19:00,
2013-01-14 17:24:00,41.2,23.5,29.71,NNW,341,5.4,5.4,49,0.00,,CLR,0.04,VWS V14.01,2013-01-14 22:24:00,
2013-01-14 17:29:00,41.2,23.5,29.71,North,7,0.0,0.0,49,0.00,,CLR,0.04,VWS V14.01,2013-01-14 22:29:00,
2013-01-14 17:34:00,41.2,23.0,29.71,NE,36,0.0,0.0,48,0.00,,CLR,0.04,VWS V14.01,2013-01-14 22:34:00,
2013-01-14 17:39:00,40.8,23.1,29.71,East,80,0.0,0.0,49,0.00,,CLR,0.04,VWS V14.01,2013-01-14 22:39:00,
2013-01-14 17:44:00,40.6,23.0,29.71,NNW,327,0.0,0.0,49,0.00,,CLR,0.04,VWS V14.01,2013-01-14 22:44:00,
2013-01-14 17:49:00,40.5,22.8,29.71,WNW,298,7.2,7.2,49,0.00,,CLR,0.04,VWS V14.01,2013-01-14 22:49:00,
2013-01-14 17:54:00,40.5,22.8,29.71,North,4,0.0,0.0,49,0.00,,CLR,0.04,VWS V14.01,2013-01-14 22:54:00,
2013-01-14 17:59:00,40.3,22.7,29.71,North,1,5.4,5.4,49,0.00,,CLR,0.04,VWS V14.01,2013-01-14 22:59:00,
2013-01-14 18:04:00,40.1,22.5,29.71,NW,309,6.3,6.3,49,0.00,,CLR,0.04,VWS V14.01,2013-01-14 23:04:00,
2013-01-14 18:10:00,39.9,22.3,29.71,North,1,0.0,2.7,49,0.00,,CLR,0.04,VWS V14.01,2013-01-14 23:10:00,
2013-01-14 18:15:00,39.9,21.8,29.71,NNW,327,0.0,2.7,48,0.00,,CLR,0.04,VWS V14.01,2013-01-14 23:15:00,
2013-01-14 18:20:00,39.7,21.7,29.71,NNW,343,6.3,6.3,48,0.00,,CLR,0.04,VWS V14.01,2013-01-14 23:20:00,
2013-01-14 18:25:00,39.6,21.5,29.71,NW,324,0.0,0.0,48,0.00,,CLR,0.04,VWS V14.01,2013-01-14 23:25:00,
2013-01-14 18:30:00,39.4,21.3,29.71,NNW,332,0.0,0.0,48,0.00,,CLR,0.04,VWS V14.01,2013-01-14 23:30:00,
2013-01-14 18:35:00,39.0,21.0,29.74,North,357,6.3,6.3,48,0.00,,CLR,0.04,VWS V14.01,2013-01-14 23:35:00,
2013-01-14 18:40:00,38.8,20.8,29.74,North,353,0.0,0.0,48,0.00,,CLR,0.04,VWS V14.01,2013-01-14 23:40:00,
2013-01-14 18:45:00,38.5,20.5,29.74,NW,324,0.0,0.0,48,0.00,,CLR,0.04,VWS V14.01,2013-01-14 23:45:00,
2013-01-14 18:50:00,38.3,20.4,29.74,West,274,6.3,6.3,48,0.00,,CLR,0.04,VWS V14.01,2013-01-14 23:50:00,
2013-01-14 18:56:00,38.1,20.2,29.74,NNE,15,0.0,0.0,48,0.00,,CLR,0.04,VWS V14.01,2013-01-14 23:56:00,
2013-01-14 19:01:00,37.9,20.0,29.74,NNW,342,0.0,0.0,48,0.00,,CLR,0.04,VWS V14.01,2013-01-15 00:01:00,
2013-01-14 19:06:00,37.9,20.0,29.74,NNE,32,0.0,0.0,48,0.00,,CLR,0.04,VWS V14.01,2013-01-15 00:06:00,
2013-01-14 19:11:00,38.1,19.7,29.74,NE,40,6.3,6.3,47,0.00,,CLR,0.04,VWS V14.01,2013-01-15 00:11:00,
2013-01-14 19:16:00,38.1,20.2,29.74,NW,318,6.3,6.3,48,0.00,,CLR,0.04,VWS V14.01,2013-01-15 00:16:00,
2013-01-14 19:21:00,37.9,20.0,29.74,NW,322,0.0,0.0,48,0.00,,CLR,0.04,VWS V14.01,2013-01-15 00:21:00,
2013-01-14 19:26:00,37.8,19.9,29.74,NNW,343,0.0,0.0,48,0.00,,CLR,0.04,VWS V14.01,2013-01-15 00:26:00,
2013-01-14 19:31:00,37.4,19.5,29.74,NNE,25,0.0,0.0,48,0.00,,CLR,0.04,VWS V14.01,2013-01-15 00:31:00,
2013-01-14 19:36:00,37.0,19.7,29.74,NNE,23,0.0,0.0,49,0.00,,CLR,0.04,VWS V14.01,2013-01-15 00:36:00,
2013-01-14 19:41:00,37.0,19.7,29.74,NNW,341,0.0,0.0,49,0.00,,CLR,0.04,VWS V14.01,2013-01-15 00:41:00,
2013-01-14 19:46:00,37.0,19.7,29.74,NW,317,0.0,0.0,49,0.00,,CLR,0.04,VWS V14.01,2013-01-15 00:46:00,
2013-01-14 19:51:00,36.9,19.5,29.77,NW,319,0.0,0.0,49,0.00,,CLR,0.04,VWS V14.01,2013-01-15 00:51:00,
2013-01-14 19:56:00,36.9,19.5,29.77,NNE,13,0.0,0.0,49,0.00,,CLR,0.04,VWS V14.01,2013-01-15 00:56:00,
2013-01-14 20:02:00,36.9,19.5,29.77,North,1,0.0,2.7,49,0.00,,CLR,0.04,VWS V14.01,2013-01-15 01:02:00,
2013-01-14 20:07:00,36.7,19.8,29.77,NNE,26,0.0,0.0,50,0.00,,CLR,0.04,VWS V14.01,2013-01-15 01:07:00,
2013-01-14 20:12:00,36.7,19.8,29.77,NNE,27,0.0,0.0,50,0.00,,CLR,0.04,VWS V14.01,2013-01-15 01:12:00,
2013-01-14 20:17:00,36.7,19.8,29.77,North,353,0.0,0.0,50,0.00,,CLR,0.04,VWS V14.01,2013-01-15 01:17:00,
2013-01-14 20:22:00,36.7,19.8,29.77,NE,50,5.4,5.4,50,0.00,,CLR,0.04,VWS V14.01,2013-01-15 01:22:00,
2013-01-14 20:27:00,36.9,19.5,29.77,NW,309,7.2,7.2,49,0.00,,CLR,0.04,VWS V14.01,2013-01-15 01:27:00,
2013-01-14 20:32:00,37.0,19.2,29.77,North,1,0.0,0.0,48,0.00,,CLR,0.04,VWS V14.01,2013-01-15 01:32:00,
2013-01-14 20:37:00,37.0,19.7,29.77,NNE,13,0.0,2.2,49,0.00,,CLR,0.04,VWS V14.01,2013-01-15 01:37:00,
2013-01-14 20:42:00,36.9,19.5,29.77,NNW,338,0.0,0.0,49,0.00,,CLR,0.04,VWS V14.01,2013-01-15 01:42:00,
2013-01-14 20:47:00,36.9,19.0,29.80,WNW,297,0.0,0.0,48,0.00,,CLR,0.04,VWS V14.01,2013-01-15 01:47:00,
2013-01-14 20:52:00,36.9,19.0,29.80,NNW,338,0.0,0.0,48,0.00,,CLR,0.04,VWS V14.01,2013-01-15 01:52:00,
2013-01-14 20:57:00,36.9,19.0,29.80,NW,322,0.0,0.0,48,0.00,,CLR,0.04,VWS V14.01,2013-01-15 01:57:00,
2013-01-14 21:03:00,36.9,19.0,29.77,NW,308,5.4,5.4,48,0.00,,CLR,0.04,VWS V14.01,2013-01-15 02:03:00,
2013-01-14 21:08:00,36.7,18.9,29.77,NNW,332,0.0,0.0,48,0.00,,CLR,0.04,VWS V14.01,2013-01-15 02:08:00,
2013-01-14 21:13:00,36.3,19.0,29.77,North,7,0.0,0.0,49,0.00,,CLR,0.04,VWS V14.01,2013-01-15 02:13:00,
2013-01-14 21:18:00,36.1,18.8,29.77,NNE,16,5.4,5.4,49,0.00,,CLR,0.04,VWS V14.01,2013-01-15 02:18:00,
2013-01-14 21:23:00,36.1,18.8,29.77,North,353,0.0,0.0,49,0.00,,CLR,0.04,VWS V14.01,2013-01-15 02:23:00,
2013-01-14 21:28:00,36.1,18.8,29.77,NW,314,0.0,0.0,49,0.00,,CLR,0.04,VWS V14.01,2013-01-15 02:28:00,
2013-01-14 21:33:00,36.0,18.7,29.80,NE,34,0.0,0.0,49,0.00,,CLR,0.04,VWS V14.01,2013-01-15 02:33:00,
2013-01-14 21:38:00,36.0,18.7,29.80,North,350,0.0,0.0,49,0.00,,CLR,0.04,VWS V14.01,2013-01-15 02:38:00,
2013-01-14 21:43:00,35.8,18.5,29.80,WNW,288,4.5,4.5,49,0.00,,CLR,0.04,VWS V14.01,2013-01-15 02:43:00,
2013-01-14 21:48:00,36.0,18.7,29.77,WNW,290,0.0,0.0,49,0.00,,CLR,0.04,VWS V14.01,2013-01-15 02:48:00,
2013-01-14 21:53:00,36.0,18.7,29.77,WNW,302,0.0,0.0,49,0.00,,CLR,0.04,VWS V14.01,2013-01-15 02:53:00,
2013-01-14 21:58:00,36.0,18.7,29.77,North,6,0.0,0.0,49,0.00,,CLR,0.04,VWS V14.01,2013-01-15 02:58:00,
2013-01-14 22:03:00,35.8,18.5,29.77,WNW,283,0.0,0.0,49,0.00,,CLR,0.04,VWS V14.01,2013-01-15 03:03:00,
2013-01-14 22:09:00,35.8,18.5,29.77,WNW,300,0.0,0.0,49,0.00,,CLR,0.04,VWS V14.01,2013-01-15 03:09:00,
2013-01-14 22:14:00,35.6,18.8,29.77,WNW,303,0.0,0.0,50,0.00,,CLR,0.04,VWS V14.01,2013-01-15 03:14:00,
2013-01-14 22:19:00,35.6,18.8,29.77,WNW,303,0.0,0.0,50,0.00,,CLR,0.04,VWS V14.01,2013-01-15 03:19:00,
2013-01-14 22:24:00,35.6,18.8,29.77,North,357,0.0,0.0,50,0.00,,CLR,0.04,VWS V14.01,2013-01-15 03:24:00,
2013-01-14 22:29:00,35.6,18.8,29.77,NW,324,0.0,0.0,50,0.00,,CLR,0.04,VWS V14.01,2013-01-15 03:29:00,
2013-01-14 22:34:00,35.6,18.8,29.77,NW,322,0.0,0.0,50,0.00,,CLR,0.04,VWS V14.01,2013-01-15 03:34:00,
2013-01-14 22:39:00,35.6,18.8,29.77,WNW,300,0.0,2.7,50,0.00,,CLR,0.04,VWS V14.01,2013-01-15 03:39:00,
2013-01-14 22:44:00,35.6,18.8,29.77,NW,309,0.0,2.2,50,0.00,,CLR,0.04,VWS V14.01,2013-01-15 03:44:00,
2013-01-14 22:49:00,35.6,18.8,29.77,NW,309,0.0,0.0,50,0.00,,CLR,0.04,VWS V14.01,2013-01-15 03:49:00,
2013-01-14 22:54:00,35.6,18.8,29.77,North,6,0.0,0.0,50,0.00,,CLR,0.04,VWS V14.01,2013-01-15 03:54:00,
2013-01-14 22:59:00,35.6,18.3,29.77,NW,317,0.0,0.0,49,0.00,,CLR,0.04,VWS V14.01,2013-01-15 03:59:00,
2013-01-14 23:04:00,35.8,18.5,29.80,NNE,12,0.0,0.0,49,0.00,,CLR,0.04,VWS V14.01,2013-01-15 04:04:00,
2013-01-14 23:09:00,35.8,18.5,29.80,NNW,343,0.0,0.0,49,0.00,,CLR,0.04,VWS V14.01,2013-01-15 04:09:00,
2013-01-14 23:15:00,35.8,18.5,29.80,NW,322,0.0,0.0,49,0.00,,CLR,0.04,VWS V14.01,2013-01-15 04:15:00,
2013-01-14 23:20:00,35.8,18.5,29.80,NNW,331,0.0,0.0,49,0.00,,CLR,0.04,VWS V14.01,2013-01-15 04:20:00,
2013-01-14 23:25:00,35.8,18.5,29.80,NW,326,0.0,0.0,49,0.00,,CLR,0.04,VWS V14.01,2013-01-15 04:25:00,
2013-01-14 23:30:00,35.6,18.3,29.80,NW,314,0.0,2.2,49,0.00,,CLR,0.04,VWS V14.01,2013-01-15 04:30:00,
2013-01-14 23:35:00,35.4,18.6,29.80,NNW,329,0.0,0.0,50,0.00,,CLR,0.04,VWS V14.01,2013-01-15 04:35:00,
2013-01-14 23:40:00,35.4,18.6,29.80,NNE,14,0.0,0.0,50,0.00,,CLR,0.04,VWS V14.01,2013-01-15 04:40:00,
2013-01-14 23:45:00,35.2,18.5,29.80,NE,39,0.0,0.0,50,0.00,,CLR,0.04,VWS V14.01,2013-01-15 04:45:00,
2013-01-14 23:50:00,35.1,18.3,29.80,NNW,335,0.0,0.0,50,0.00,,CLR,0.04,VWS V14.01,2013-01-15 04:50:00,
2013-01-14 23:55:00,35.1,18.3,29.80,NNW,335,0.0,0.0,50,0.00,,CLR,0.04,VWS V14.01,2013-01-15 04:55:00,